Wind_Speed
5 5 5 5 3 4 4 5 4 4 3 3 3 3 4 4 5 5 5 6 6 6 7 8 9 9 8 8 7 7 7 7 7 6 6 6 6 7 7 8 8 9 9 9 9 9 10 9 9 9 9 9 9 8 8 8 8 7 7 6 4 4 4 4 4 5 5 6 6 6 6 6 6 6 7 7 7 8 8 8 8 8 9 10 10
4 3 4 4 3 4 5 5 5 4 3 2 1 1 2 3 3 3 4 5 5 6 6 7 8 8 8 8 7 7 7 7 7 7 7 7 7 7 7 8 8 9 9 9 9 9 9 9 9 9 9 9 9 9 9 8 8 7 6 5 4 3 4 4 5 5 6 6 6 7 7 7 7 7 7 8 8 8 9 9 9 9 10 10 11
3 3 3 3 4 4 5 6 5 5 4 4 3 1 0 1 1 2 3 4 4 5 5 6 6 8 8 8 7 7 7 7 7 7 7 7 7 7 7 8 9 9 9 9 9 10 10 10 9 9 10 10 9 9 9 9 8 7 5 5 4 4 4 4 5 5 6 6 6 7 7 8 8 8 9 9 9 9 10 10 10 10 11 11 12
4 3 3 3 4 4 5 5 5 5 5 5 5 3 2 1 1 1 2 3 3 4 4 4 5 6 7 8 7 6 6 6 7 7 7 7 7 8 8 8 9 9 9 10 10 10 10 10 10 10 10 10 10 9 9 8 7 6 5 5 5 5 4 4 5 6 6 6 7 7 7 8 9 9 10 10 10 11 11 11 11 12 12 13 13
5 4 4 4 4 4 5 5 5 5 6 6 6 5 4 3 3 3 3 3 3 3 3 3 3 5 6 6 7 6 5 5 6 6 6 7 7 8 8 8 9 9 10 10 10 11 11 11 11 11 11 10 10 10 9 8 7 6 6 5 5 4 5 5 6 6 7 7 7 7 7 8 9 10 11 11 12 12 12 13 13 13 13 14 14
6 5 5 4 4 4 4 4 5 5 6 6 6 6 5 5 4 4 4 4 4 4 4 3 2 3 4 5 5 5 5 5 5 5 5 6 7 7 8 8 9 9 9 10 11 11 11 11 11 11 10 10 10 10 10 8 7 6 6 5 4 4 5 5 6 7 7 7 7 8 8 8 9 10 11 12 13 14 14 14 14 14 15 15 16
7 7 6 6 5 5 5 4 4 5 6 5 5 5 5 5 5 5 5 5 5 5 5 4 3 2 2 3 4 5 5 4 4 4 4 5 6 7 7 8 8 9 9 10 11 11 11 11 11 10 10 10 10 10 10 9 8 7 6 5 4 3 4 4 5 6 7 7 8 8 8 8 9 10 11 12 13 14 15 15 15 16 16 16 17
10 9 7 7 6 5 5 4 5 5 5 4 3 2 3 4 5 5 6 6 6 6 6 6 4 2 1 2 3 4 4 4 4 3 4 4 5 6 7 8 8 9 10 10 10 11 11 11 11 10 10 10 10 10 9 9 9 8 7 5 4 3 3 3 5 5 6 6 7 8 8 9 8 10 11 13 14 15 15 16 16 16 16 16 17
11 10 8 8 7 6 6 6 6 5 6 5 3 1 2 3 4 5 6 7 7 7 7 6 5 4 3 2 2 3 3 4 4 3 3 4 4 5 6 7 8 9 9 10 10 11 11 11 10 10 10 10 9 9 9 9 9 8 6 6 5 4 4 3 4 5 5 5 6 7 8 8 8 9 10 12 14 15 15 15 15 15 15 16 16
12 11 9 9 8 7 7 7 7 7 7 7 7 6 5 5 4 4 5 6 7 8 7 7 6 5 4 3 3 3 3 3 4 4 3 3 4 4 5 6 7 8 9 9 10 10 10 10 10 10 10 10 9 8 8 8 8 7 6 6 6 6 5 5 5 5 6 6 5 6 6 5 7 8 9 10 12 13 14 14 14 14 15 15 16
12 11 10 9 9 8 8 9 8 8 8 9 11 11 9 7 6 5 5 6 7 8 8 8 7 6 6 5 4 4 4 3 4 4 3 3 4 4 5 6 7 8 8 9 9 9 10 10 10 10 10 10 9 9 8 8 8 7 6 6 6 6 6 6 6 6 6 6 6 5 3 3 6 8 8 9 10 11 12 13 13 13 14 14 15
13 12 11 10 10 10 10 10 10 10 10 10 8 8 8 7 6 6 6 7 7 9 9 9 8 7 7 6 6 5 5 4 4 4 4 4 4 4 5 5 6 7 8 9 9 9 9 9 10 10 10 10 10 10 9 9 8 7 6 5 5 5 5 5 6 6 6 6 5 2 1 3 7 9 8 8 9 10 11 12 12 13 13 13 14
13 12 11 11 11 11 12 12 12 11 11 10 6 4 5 6 6 6 6 7 7 9 9 9 9 8 8 7 7 7 6 5 5 5 4 4 5 5 5 5 6 7 8 9 9 9 8 9 9 10 10 10 10 11 11 10 9 7 6 5 5 5 5 5 5 5 6 5 3 2 3 6 9 10 9 9 9 10 10 11 11 12 12 13 14
14 13 13 13 13 13 13 14 14 13 12 11 9 6 5 6 6 6 7 7 7 8 9 10 10 9 8 8 8 8 7 6 6 5 5 5 6 6 6 6 6 7 8 9 9 9 8 8 9 10 10 10 11 11 11 11 9 8 7 6 7 6 6 6 6 5 5 4 3 3 5 7 10 10 10 10 10 10 10 10 10 11 13 14 15
16 15 15 14 15 15 15 16 15 14 14 12 11 10 9 8 8 9 8 8 7 8 9 10 10 10 9 9 8 8 8 7 7 7 6 6 7 7 7 7 7 7 8 9 9 9 9 9 9 9 10 10 11 11 11 11 10 9 8 7 7 7 8 7 7 6 5 4 3 4 6 8 10 10 10 10 10 10 10 10 10 12 13 15 16
18 16 16 16 16 17 16 17 17 16 15 14 13 11 10 10 11 11 9 8 7 8 9 10 10 10 10 9 9 9 8 8 8 7 7 7 8 9 9 9 8 8 8 9 9 10 10 10 10 10 10 10 11 12 11 11 11 10 9 9 8 8 8 8 7 7 6 5 5 5 7 9 10 10 10 10 10 10 10 11 11 13 15 16 17
19 17 17 18 18 18 18 18 18 17 17 16 14 12 9 9 10 10 8 8 7 8 10 10 11 10 10 10 9 9 9 9 9 8 7 7 9 9 10 10 10 9 9 10 10 10 11 11 11 11 11 11 11 12 11 10 10 10 9 9 9 8 8 7 7 7 6 6 6 6 8 9 10 10 10 10 10 11 11 11 12 14 16 17 17
19 19 19 19 19 19 19 19 19 18 18 16 14 12 10 11 10 8 8 8 8 8 10 10 11 11 11 10 10 10 9 9 9 9 8 8 9 9 10 10 10 10 10 10 10 10 11 12 12 12 12 12 12 12 11 10 10 10 9 9 9 8 8 7 7 6 6 7 7 7 8 10 10 10 10 10 11 11 11 11 13 15 16 16 16
20 21 20 20 21 21 20 20 20 19 19 17 15 13 12 14 13 10 9 10 11 11 10 10 11 12 12 11 11 10 10 10 10 9 9 9 10 10 10 10 11 11 11 10 10 11 11 12 13 13 13 13 13 12 11 10 10 9 9 9 9 8 8 7 6 6 7 8 8 9 9 10 10 10 10 11 11 11 11 12 14 15 15 16 16
21 22 21 21 21 21 21 21 21 21 19 17 15 14 14 16 16 15 14 13 13 13 12 11 11 12 12 12 12 11 11 10 10 10 10 10 10 10 10 10 10 11 11 11 10 11 12 13 14 14 14 14 13 13 12 11 10 10 10 10 9 8 8 7 7 8 8 8 9 10 10 11 10 10 11 11 11 11 11 13 14 15 15 15 16
22 21 21 21 22 22 22 22 22 22 21 18 17 16 15 17 18 20 19 18 16 15 15 14 12 12 12 13 13 12 12 11 11 11 11 10 10 10 10 10 10 11 11 11 11 11 12 13 14 14 15 14 14 13 12 11 11 11 11 11 9 8 8 8 8 8 8 8 9 10 10 10 10 11 11 11 11 11 12 13 14 14 14 15 16
21 22 21 21 22 24 24 24 24 24 24 21 19 18 18 19 20 21 21 20 18 16 15 14 13 13 13 13 13 13 12 12 11 11 11 11 10 9 9 10 10 11 12 12 11 12 12 13 14 15 15 15 14 13 12 12 12 11 11 11 10 9 8 8 9 9 8 9 9 9 10 9 10 10 10 10 10 11 12 13 13 14 14 15 16
22 22 22 23 24 25 25 26 26 26 26 24 22 21 20 20 21 21 20 19 18 16 15 14 12 12 13 13 13 13 13 12 11 11 11 10 10 9 9 10 11 12 12 12 12 12 13 14 15 15 15 15 14 13 13 13 12 12 11 11 10 9 8 8 9 8 8 9 9 9 9 10 10 10 9 10 10 11 12 12 13 13 14 15 16
23 24 25 25 25 26 26 27 28 28 27 25 24 23 21 20 20 20 19 19 17 15 15 14 12 12 12 13 13 13 13 12 11 10 10 9 9 9 9 10 11 12 13 13 12 13 13 14 15 15 14 15 15 14 14 13 13 12 12 11 10 9 9 8 7 7 8 9 9 9 10 10 10 9 9 9 10 10 11 12 12 13 14 15 16
23 25 25 25 26 27 28 30 30 30 29 28 26 24 22 21 20 19 19 18 16 15 15 13 13 12 12 12 12 12 12 12 11 10 9 9 9 9 10 11 12 13 13 13 13 13 14 14 14 14 14 15 15 14 14 13 13 13 12 11 11 9 8 7 7 7 9 10 10 10 11 10 9 9 9 9 10 10 11 11 11 12 14 15 15
21 23 25 28 29 30 32 33 32 32 31 29 27 23 21 21 20 19 18 17 15 14 14 13 13 13 12 12 11 11 11 11 10 9 9 8 9 9 10 11 11 12 12 13 13 13 14 14 14 14 15 15 14 13 13 13 13 13 13 12 11 10 9 8 8 8 10 11 11 11 11 10 9 8 9 9 10 10 10 10 11 12 13 14 15
23 24 28 32 34 35 36 36 36 35 33 30 26 23 21 21 20 18 17 16 14 13 13 12 12 12 12 11 11 11 11 11 10 9 8 8 8 9 9 10 10 11 11 12 13 13 14 14 14 14 15 15 15 14 13 13 13 13 13 13 12 11 11 10 9 9 11 11 12 12 11 10 9 9 9 9 9 9 9 10 12 12 13 14 14
28 28 31 35 37 39 40 39 38 37 34 30 26 23 23 22 20 18 17 15 14 13 13 12 11 12 11 11 10 10 10 10 10 9 8 7 7 7 7 8 9 10 10 11 12 13 13 14 14 15 15 16 16 14 13 13 12 12 12 13 13 13 13 12 10 11 12 13 13 13 12 10 9 9 9 8 8 8 10 11 11 12 13 14 14
31 33 35 38 39 41 43 41 40 38 33 29 26 25 24 22 20 19 17 15 14 14 13 12 11 11 11 10 10 10 10 9 9 8 7 6 5 5 5 6 8 8 9 10 12 13 13 14 15 15 15 15 16 15 14 13 12 11 12 13 13 14 14 12 11 12 13 14 14 14 12 10 10 9 8 8 8 9 10 10 11 12 13 13 14
31 35 38 38 38 42 46 44 41 38 32 30 27 27 26 24 22 20 17 15 14 14 14 12 12 12 11 10 9 9 8 8 8 8 6 5 4 3 4 4 6 7 8 10 12 13 14 15 16 16 16 16 16 15 14 12 11 12 13 13 13 14 13 12 11 13 15 15 15 14 12 11 10 9 8 8 9 9 10 10 11 12 12 13 14
29 33 36 36 37 41 47 47 43 37 33 31 29 30 29 27 23 19 16 15 14 15 14 13 13 12 11 10 9 8 7 7 7 7 6 4 3 2 2 4 5 7 8 10 12 14 15 17 17 17 17 16 15 13 12 12 12 12 13 14 14 14 14 12 13 14 16 16 15 14 13 11 10 9 8 8 8 9 9 10 11 12 12 13 14
28 30 32 33 36 40 44 46 42 37 35 33 32 33 30 27 23 19 17 15 15 16 15 14 13 12 11 10 9 8 7 7 7 6 5 4 2 1 2 3 5 7 8 10 12 14 16 17 18 18 17 16 15 13 13 13 13 13 13 13 14 14 14 14 13 14 16 16 15 14 12 11 10 9 8 8 8 9 10 10 11 12 13 13 14
26 27 27 29 32 34 39 41 39 38 37 36 35 34 30 26 23 19 18 16 17 17 15 14 14 13 12 10 9 8 8 8 7 6 5 3 2 1 2 3 5 7 9 11 13 14 16 17 18 18 17 16 15 15 15 15 14 13 13 13 14 14 15 14 14 15 16 17 16 14 12 11 10 9 8 8 9 9 10 11 11 12 13 13 15
25 25 25 27 26 26 35 39 39 40 39 37 36 34 30 26 22 20 19 18 18 18 16 15 14 14 12 11 10 9 8 8 7 6 5 3 2 1 2 4 5 7 9 11 13 14 16 17 17 17 16 16 16 16 16 15 13 13 12 12 13 14 14 15 15 15 16 16 16 14 12 11 10 8 8 8 9 9 10 11 11 12 13 14 15
28 26 26 26 24 25 32 36 37 39 39 36 34 34 30 25 22 21 20 20 20 19 17 16 15 14 13 11 11 10 9 8 7 6 5 4 3 2 2 4 6 8 10 11 13 15 16 17 17 16 16 16 16 16 15 14 14 13 12 12 12 13 13 15 16 16 15 15 15 14 12 11 10 9 8 8 8 9 10 11 11 12 13 14 16
29 29 28 27 25 24 27 32 35 37 37 35 33 32 30 26 23 22 22 22 21 20 18 17 16 15 13 12 11 11 10 9 8 7 6 5 4 3 3 5 7 9 10 12 13 15 16 16 16 16 16 16 16 15 14 14 14 13 12 11 12 12 13 14 16 17 15 15 14 13 11 10 9 9 9 9 8 9 10 11 12 13 13 15 16
29 30 29 28 27 24 24 26 32 37 36 35 34 33 30 27 24 23 23 23 22 21 19 18 17 15 14 13 12 11 10 9 9 8 7 7 6 4 4 5 7 9 10 12 13 15 16 16 16 16 16 16 16 15 15 14 14 13 12 12 12 12 12 13 15 17 16 15 15 14 12 10 9 8 8 9 9 9 10 11 12 13 14 15 17
32 32 30 28 27 28 28 25 27 35 37 36 35 33 30 27 25 24 24 24 23 21 20 18 17 16 15 14 13 12 11 11 10 9 9 8 7 6 5 5 7 9 10 11 13 14 15 16 16 17 17 16 16 16 16 15 13 12 12 12 12 12 13 13 14 15 16 15 15 16 15 13 11 8 7 8 9 10 10 12 13 14 15 16 17
34 34 34 31 26 26 27 24 24 31 37 36 35 32 28 26 25 24 24 24 23 21 20 19 18 17 16 15 14 14 13 12 11 11 10 10 9 8 7 6 7 9 10 11 13 14 16 17 17 18 18 17 17 16 16 15 13 12 12 12 12 13 13 13 13 14 14 15 14 15 16 16 16 13 9 7 9 11 12 12 13 14 15 17 18
36 36 37 36 31 26 24 23 25 30 37 35 33 31 28 26 25 24 25 25 24 22 21 20 19 18 17 16 16 15 14 13 13 12 11 11 10 9 8 7 7 9 11 12 14 14 16 18 19 19 19 18 17 17 16 15 13 12 12 13 13 13 13 13 14 13 13 14 13 13 14 15 16 16 14 10 9 11 12 13 13 13 15 17 18
38 39 39 40 38 30 24 24 23 27 35 33 32 31 28 27 27 26 26 27 26 24 22 21 20 19 18 17 17 16 15 14 13 13 13 12 11 10 9 8 8 10 12 13 14 15 16 18 19 19 19 18 18 17 17 15 14 13 13 13 13 14 14 14 15 14 13 13 14 13 13 14 15 16 16 13 11 10 12 13 13 13 15 17 19
38 39 39 41 43 34 25 25 24 26 30 29 29 29 28 28 28 29 29 30 29 26 24 23 21 20 18 18 18 17 16 15 14 14 14 14 13 12 10 10 9 11 13 14 14 15 15 17 19 19 19 18 18 18 17 16 15 14 14 13 14 14 14 14 14 15 14 13 14 14 13 13 13 14 15 14 13 12 12 13 13 13 15 18 19
36 37 38 39 44 39 30 28 28 30 30 29 28 24 24 27 29 30 31 32 32 29 26 24 21 19 18 18 18 17 17 15 14 14 15 15 14 13 11 11 11 11 13 14 15 15 15 16 18 18 18 18 18 18 18 17 16 14 14 14 14 15 15 14 14 15 15 13 13 14 14 14 12 12 13 14 15 15 14 14 13 14 16 18 20
36 37 36 37 42 41 35 33 31 33 34 33 33 30 26 27 29 31 32 33 34 33 30 25 21 19 19 20 19 18 18 17 15 15 15 15 14 13 13 12 12 12 13 15 15 15 15 16 17 18 18 18 18 18 18 18 16 15 14 15 15 16 16 15 15 16 16 15 14 14 15 15 14 12 12 14 15 15 16 15 14 15 16 18 20
39 38 37 36 39 38 37 37 35 34 34 33 34 36 33 29 30 31 32 33 34 35 32 26 23 21 21 21 21 20 19 18 16 15 15 15 14 14 14 13 13 13 14 15 15 15 15 16 17 18 18 18 18 18 18 18 16 15 15 15 16 17 17 16 16 16 17 17 16 17 17 17 17 16 14 15 16 16 16 16 15 15 16 17 19
43 42 40 37 37 36 36 37 37 37 36 35 35 37 35 31 31 32 33 33 34 35 33 29 28 26 24 23 24 23 20 18 17 15 14 14 14 14 14 14 14 14 14 14 15 15 16 16 17 17 17 17 18 18 18 18 17 16 15 16 17 18 18 17 16 16 16 17 18 19 19 18 19 19 18 17 17 17 17 17 16 16 17 18 19
45 44 43 40 37 36 37 37 37 38 37 37 38 39 37 33 32 33 34 34 36 37 36 34 34 32 28 26 26 26 23 19 17 15 14 13 13 13 14 14 15 15 14 14 14 15 17 17 17 17 17 17 17 17 18 18 17 16 16 17 17 18 18 18 17 16 16 17 18 19 20 20 20 20 20 19 19 19 19 18 17 18 19 19 20
42 42 43 41 39 39 40 39 38 38 38 38 40 41 40 37 34 34 34 35 37 39 39 38 38 35 32 28 27 28 25 21 18 16 13 12 11 12 13 14 15 15 14 14 14 15 17 17 17 17 17 17 17 17 17 18 18 17 17 17 17 18 18 18 18 17 17 18 18 19 20 21 20 20 20 20 20 20 20 19 18 18 19 20 21
41 43 44 42 40 41 43 43 40 38 38 39 41 41 41 40 38 36 36 36 37 38 38 38 38 36 34 31 30 29 27 24 20 17 15 14 13 13 14 15 16 16 15 14 14 15 17 18 17 17 17 17 17 17 17 18 18 18 17 17 17 17 18 19 19 18 18 18 19 20 21 21 21 20 20 20 20 20 21 20 19 18 19 21 22
44 43 43 42 41 43 45 46 44 41 39 39 40 41 41 41 41 40 37 37 38 37 36 36 36 34 32 34 34 31 29 27 25 23 21 19 17 16 16 17 17 16 15 14 14 14 16 18 18 18 18 18 17 17 17 18 18 18 17 17 17 17 18 18 19 19 18 18 19 20 21 21 21 21 20 20 21 21 21 21 21 19 19 21 22
47 44 44 44 43 44 47 48 46 43 42 40 39 40 41 42 44 43 39 37 38 38 35 34 33 30 29 33 36 35 32 30 30 29 26 23 21 19 18 18 17 16 15 14 14 15 16 18 19 19 19 18 18 18 17 17 18 18 18 18 18 18 18 18 19 19 18 18 18 19 20 20 22 22 21 21 21 21 21 21 22 21 21 22 23
Wind_Direction
239 231 228 224 202 179 187 197 198 191 165 133 100 74 54 42 36 26 10 5 3 1 5 8 6 2 2 3 7 14 21 26 26 26 29 35 42 49 54 57 57 57 56 54 53 52 50 48 43 39 38 37 35 33 34 34 33 29 25 20 6 342 320 310 304 300 301 305 310 317 325 332 340 344 346 347 346 346 346 346 346 349 351 351 347
241 230 226 227 213 194 198 208 212 214 214 203 165 83 56 37 30 19 4 355 354 353 358 6 6 3 1 3 10 19 26 31 33 30 31 36 43 50 54 56 57 56 54 52 50 48 45 42 37 33 32 34 34 32 33 35 37 34 29 22 11 354 329 313 304 297 294 298 304 310 319 325 332 335 336 337 337 336 337 339 340 343 347 347 344
261 258 238 231 226 209 205 215 222 227 236 242 243 242 237 23 7 358 348 340 341 342 347 359 5 2 1 3 8 17 26 32 36 34 31 36 42 47 50 52 54 53 51 48 45 43 40 37 33 29 27 29 31 31 31 33 35 33 26 18 10 2 343 320 303 293 287 288 294 301 310 317 323 326 326 326 327 327 329 332 334 338 342 341 340
276 275 258 242 231 220 214 216 224 233 240 246 251 249 247 248 260 273 297 310 318 327 333 347 359 1 1 1 3 10 21 29 37 37 32 34 39 43 44 46 49 48 45 44 41 38 36 34 32 28 25 24 26 29 32 31 29 22 15 15 9 357 343 326 307 294 287 286 288 293 301 307 313 317 318 318 319 321 323 325 328 333 335 335 335
285 283 271 260 242 229 225 222 225 236 243 247 252 252 253 251 254 255 259 275 287 299 311 326 345 356 359 0 359 2 12 22 33 37 32 31 35 37 38 40 42 42 40 39 37 35 34 33 33 30 26 23 22 24 28 29 23 11 8 10 8 354 341 329 313 300 291 287 285 288 294 299 304 309 312 313 315 316 317 320 324 327 329 330 330
287 285 278 269 257 244 235 233 232 240 250 253 256 257 259 260 260 258 255 262 271 277 282 289 308 339 353 358 355 355 1 11 23 33 31 27 29 32 32 33 37 37 36 35 35 34 34 34 33 32 29 24 20 20 22 24 18 9 8 6 0 354 343 330 316 306 299 292 286 286 288 291 298 304 307 309 310 312 314 316 320 322 324 325 326
285 282 278 272 265 255 249 246 241 244 253 257 260 260 260 261 260 255 252 255 264 268 267 267 268 288 334 353 351 348 353 358 7 22 26 24 22 26 25 24 29 30 31 31 32 33 34 36 35 33 30 27 22 18 16 17 17 12 8 2 357 353 339 326 317 310 306 301 295 291 288 290 296 301 304 306 307 309 311 313 316 318 320 322 323
279 276 274 271 267 261 260 254 248 245 245 242 244 259 262 257 252 246 243 246 255 260 262 260 258 258 276 324 338 338 344 347 351 4 14 18 16 18 17 17 21 22 24 25 28 31 33 35 35 34 32 29 25 19 14 11 14 15 8 1 356 350 341 326 318 314 310 306 302 297 293 292 295 301 304 305 305 306 307 309 312 314 316 318 321
271 269 268 267 267 265 263 257 251 242 237 230 224 242 291 266 245 240 241 245 251 256 260 260 258 255 255 271 300 315 329 336 335 344 0 8 8 8 10 11 14 16 17 19 24 28 31 32 31 31 31 30 26 20 14 10 14 17 10 3 358 354 355 338 321 319 318 312 304 299 297 293 295 302 305 303 302 303 305 306 309 312 314 317 321
264 263 262 262 264 263 258 255 251 245 242 243 251 264 284 279 258 250 246 246 248 253 256 258 257 254 256 257 268 286 304 320 321 329 345 354 354 355 359 3 8 10 9 12 18 25 29 29 27 26 27 27 22 16 13 12 16 19 15 9 6 3 358 346 334 329 326 323 313 308 305 299 302 306 306 303 302 303 304 306 310 312 315 318 321
258 258 257 257 257 256 254 252 250 251 252 261 269 266 269 268 259 261 255 249 248 250 251 252 253 252 254 256 261 268 277 295 305 317 332 340 342 344 349 354 1 2 2 5 12 21 26 26 23 21 21 20 12 5 8 11 13 18 23 19 14 11 3 352 343 338 333 331 329 326 329 324 315 312 311 310 308 307 308 310 314 317 318 321 323
251 253 253 252 251 252 251 250 249 253 259 273 282 259 249 246 247 258 257 254 248 249 249 248 247 247 250 252 257 261 267 277 289 304 317 328 331 334 340 347 354 356 355 358 4 13 20 23 20 17 16 12 1 354 0 6 6 13 24 23 19 15 4 357 350 341 337 337 342 350 353 338 330 322 322 323 319 317 315 316 318 319 321 324 326
246 248 246 246 247 248 248 248 247 251 259 268 276 245 233 237 242 252 255 254 249 247 248 247 244 243 246 249 253 258 263 270 280 292 306 320 325 325 331 340 348 351 351 351 357 4 10 17 17 15 12 5 353 347 353 357 358 5 13 10 10 9 0 357 353 346 340 338 333 287 301 331 335 327 328 331 328 324 319 319 320 321 324 327 329
241 242 238 240 243 245 246 247 247 250 254 256 254 243 242 249 252 255 253 251 249 247 246 246 244 242 243 247 251 256 262 269 278 287 299 315 320 320 324 334 342 346 347 347 350 355 1 9 14 13 8 0 347 343 349 348 349 358 3 1 2 1 358 0 3 4 358 349 330 296 311 332 332 327 332 335 331 326 321 321 323 325 328 330 330
235 235 232 233 238 241 244 246 249 250 250 251 248 247 250 252 259 261 252 245 248 249 247 247 245 244 243 245 249 255 262 269 277 285 297 313 316 317 322 329 336 341 344 344 345 347 352 1 8 10 6 358 345 343 347 342 343 352 356 358 2 2 1 8 16 21 21 16 8 341 332 335 331 329 334 335 331 328 326 327 330 331 333 333 332
226 230 229 230 234 238 242 246 250 251 250 252 249 253 255 253 258 258 248 240 244 248 248 249 249 247 246 247 249 254 262 269 277 285 298 312 313 315 321 327 331 336 339 339 340 341 345 353 1 6 4 358 346 344 348 342 342 348 353 358 3 9 11 15 19 21 23 23 15 355 341 337 335 334 335 335 334 334 334 334 336 336 336 335 334
218 223 227 230 233 235 240 245 250 253 252 253 253 254 250 245 250 250 249 248 242 244 247 249 251 251 250 251 252 255 261 268 276 285 300 308 310 314 320 325 329 332 335 335 336 338 342 348 354 0 1 357 347 346 349 344 345 349 354 0 2 11 18 19 20 17 17 13 1 347 340 339 337 337 337 337 337 338 339 338 338 338 337 336 336
211 218 224 228 232 234 237 242 249 254 254 255 255 252 237 227 231 239 255 262 257 250 247 249 253 254 254 254 255 257 262 269 276 286 299 305 307 312 319 324 328 330 332 332 333 335 340 345 350 355 357 355 348 348 351 348 348 349 352 1 3 11 17 15 17 14 10 360 347 342 342 340 338 339 339 339 339 340 341 340 338 337 336 337 338
204 214 222 227 230 234 236 241 247 252 255 257 254 247 234 226 230 244 258 266 269 263 254 252 255 256 256 257 258 261 264 269 277 287 296 301 306 311 317 323 327 329 330 329 330 334 338 343 347 350 354 353 349 349 352 349 349 348 349 358 3 9 11 6 3 358 356 350 344 346 345 343 342 343 342 341 341 341 342 340 338 337 338 339 338
203 214 220 226 230 233 236 241 245 251 255 254 250 244 237 236 242 254 263 268 270 267 261 255 256 259 258 259 261 264 267 271 278 286 292 296 302 309 315 322 326 328 328 327 328 333 338 342 344 347 350 350 348 349 351 347 346 345 346 353 358 3 2 355 352 348 348 347 347 349 346 346 345 344 343 342 342 342 342 342 340 339 339 339 336
203 214 219 224 229 233 236 240 243 249 251 248 246 247 247 249 253 258 264 267 267 266 263 256 254 259 260 261 262 265 268 272 278 284 288 293 299 305 311 318 323 325 325 326 327 333 338 341 343 345 347 348 347 349 349 345 344 345 344 344 346 353 353 349 347 343 343 345 347 346 346 347 345 342 342 343 343 343 344 343 341 340 339 337 333
203 214 220 225 231 233 237 240 242 246 248 247 247 250 254 258 262 262 263 264 264 264 261 255 252 257 260 261 263 265 268 271 276 281 285 290 295 300 306 313 317 322 323 324 327 333 338 340 342 344 346 346 346 347 348 345 346 346 344 339 339 345 346 344 341 338 341 344 345 345 346 345 340 339 341 343 344 345 345 343 341 340 338 334 331
204 215 225 232 234 235 237 238 240 243 246 249 250 253 256 261 264 263 261 261 261 260 257 254 253 255 257 259 263 266 268 271 273 277 281 286 291 296 301 308 313 318 321 323 327 332 338 340 341 344 346 345 344 346 347 346 346 344 342 339 337 338 337 337 336 337 340 340 340 342 341 338 336 337 341 344 345 346 344 343 342 339 335 331 328
208 218 229 236 236 238 238 237 238 240 243 246 249 252 255 258 258 256 257 257 256 256 257 256 256 256 256 256 259 264 268 271 273 274 278 283 288 294 300 306 311 316 319 322 327 333 338 340 341 344 347 344 343 348 348 345 343 338 339 338 334 331 329 333 335 336 336 332 333 336 335 334 335 339 343 346 348 347 345 343 341 336 332 329 326
214 220 228 235 238 239 238 238 237 237 239 240 244 249 252 250 248 248 250 253 254 255 258 258 258 256 254 252 254 259 264 267 269 270 273 279 287 294 300 306 311 315 318 321 327 334 338 340 343 344 346 345 344 348 347 340 338 335 335 334 330 330 327 327 327 329 329 327 330 332 333 334 337 343 347 351 351 349 345 340 337 335 330 325 323
223 225 230 235 238 241 242 240 237 236 235 235 239 244 244 242 240 241 244 249 253 256 260 259 257 254 250 248 248 252 257 260 261 262 267 276 287 296 302 307 312 316 319 324 329 336 339 342 345 344 344 344 345 347 342 336 334 334 332 330 330 332 326 317 314 318 322 324 328 330 332 336 341 349 353 353 351 345 340 338 338 334 327 323 324
234 234 234 234 234 239 242 240 238 236 233 232 234 235 233 232 233 234 238 245 252 257 259 257 251 247 245 243 242 246 249 253 254 257 264 275 287 296 304 310 315 320 324 327 333 339 341 343 345 344 344 343 343 344 338 334 333 333 331 329 331 330 323 317 313 315 318 322 327 330 333 340 345 352 354 351 346 340 338 341 338 330 325 326 328
240 241 238 235 234 237 238 238 238 235 232 229 225 222 222 223 224 226 233 240 247 252 253 250 243 237 236 235 237 240 245 250 253 258 263 274 287 295 306 314 318 325 332 334 337 343 344 344 346 346 345 343 340 339 336 333 333 332 329 329 329 325 321 320 317 314 316 321 326 329 334 341 346 351 351 345 342 340 341 341 333 327 328 329 332
239 240 240 238 243 247 241 236 236 233 231 225 218 214 213 214 217 220 227 235 241 243 241 238 233 229 229 229 231 237 244 252 256 261 264 271 283 293 309 321 326 334 341 343 343 345 346 346 348 348 345 342 338 336 334 332 329 328 327 327 325 321 319 319 317 313 315 319 325 329 333 340 345 347 345 342 342 342 341 335 328 327 329 331 335
236 237 238 239 250 256 245 235 230 228 226 221 214 210 209 208 210 216 222 228 232 230 227 226 228 227 227 227 229 235 243 251 256 259 262 267 276 293 324 337 338 346 351 349 346 345 346 348 349 348 344 339 335 333 332 329 328 328 327 325 322 318 317 316 314 313 315 319 324 329 331 336 342 342 340 341 342 339 333 327 325 328 330 335 338
236 240 243 245 256 256 243 233 225 220 219 217 212 210 209 205 205 211 218 223 224 222 220 221 227 226 225 227 228 231 236 246 252 253 256 262 274 299 348 3 356 356 353 348 346 344 345 348 347 346 343 338 334 331 327 325 327 327 324 322 319 316 315 316 316 315 316 319 324 327 327 331 335 335 336 338 336 331 326 324 325 328 333 337 337
235 242 247 251 260 253 237 228 221 218 217 213 211 212 209 203 202 207 214 220 220 218 219 220 224 224 222 223 225 226 227 235 241 245 249 253 269 307 2 16 5 355 346 340 344 345 344 345 344 343 342 338 335 330 323 325 327 324 320 317 315 314 316 318 319 318 317 319 322 324 323 325 328 330 333 333 330 326 323 324 325 329 334 336 334
234 238 244 252 258 244 227 224 223 223 218 212 212 213 209 201 199 204 210 216 217 216 219 220 222 221 219 217 219 221 221 228 232 234 238 240 254 295 352 11 3 347 337 335 342 346 344 343 343 342 339 336 335 330 325 325 324 320 316 314 313 314 317 320 321 319 319 318 318 320 320 320 323 327 329 328 326 324 323 322 324 329 332 333 333
240 239 241 249 254 237 225 227 230 227 219 214 215 213 207 200 197 202 208 211 213 214 217 219 220 220 218 214 214 218 220 226 228 229 230 230 239 268 330 350 348 339 330 333 342 345 343 343 342 341 336 335 335 330 324 320 317 315 313 313 314 314 318 322 321 321 320 318 316 319 319 316 320 325 325 324 323 323 321 318 322 328 330 332 333
250 248 243 244 251 250 237 229 227 224 219 217 218 215 207 198 198 203 207 209 210 212 215 218 220 219 219 215 214 216 220 224 226 228 227 230 238 258 311 328 333 330 328 335 344 345 344 343 342 340 336 333 333 328 320 314 312 313 312 314 315 317 321 321 319 320 320 316 315 317 316 314 317 322 321 319 320 319 314 315 323 328 329 330 332
257 255 251 248 251 253 240 227 220 216 217 219 219 217 207 197 199 204 208 208 207 210 213 216 219 220 219 218 218 218 221 224 225 227 229 236 248 266 306 324 328 326 330 341 347 345 344 343 342 341 337 332 329 326 319 312 311 312 315 318 319 320 323 319 316 319 320 316 313 313 311 309 312 317 317 316 316 311 309 317 325 327 327 328 329
257 257 253 250 249 243 234 232 225 214 214 218 218 217 208 197 198 205 209 207 205 209 211 214 219 221 220 220 221 221 222 225 226 230 234 240 252 270 299 318 323 323 332 343 346 344 344 344 344 343 339 334 330 326 320 315 312 314 318 322 324 324 323 318 315 318 320 318 315 313 309 305 304 307 311 310 306 304 312 325 327 325 324 324 326
254 256 252 248 244 241 242 247 237 218 213 216 216 216 209 197 198 205 208 206 207 210 211 215 220 221 222 223 224 223 223 227 229 232 237 244 252 264 283 302 313 318 330 341 345 346 347 347 347 346 343 338 333 328 323 319 316 317 319 322 325 325 323 316 314 318 319 319 317 313 310 306 303 301 302 302 303 311 324 330 325 321 319 319 324
254 256 255 250 243 246 253 253 244 224 215 216 215 213 207 197 199 205 207 206 209 213 215 217 221 221 221 224 226 224 222 226 230 235 240 246 252 262 274 289 305 314 326 337 344 348 349 350 350 348 344 339 336 331 327 324 321 321 320 320 323 323 321 316 314 316 317 315 312 309 306 306 308 309 310 309 313 321 327 325 319 315 314 316 322
255 257 256 253 247 252 258 256 249 226 214 215 214 209 203 197 201 206 207 208 211 216 219 220 221 221 221 223 226 225 221 222 228 235 241 247 253 260 271 284 299 311 322 332 340 345 348 351 351 348 344 339 336 333 331 328 324 323 321 320 321 321 321 319 315 316 315 310 305 302 301 303 309 313 316 320 324 323 318 313 312 311 311 314 320
252 256 257 257 254 254 257 259 249 217 208 212 210 207 202 196 201 206 208 210 212 215 219 221 221 221 222 224 226 227 223 219 223 232 241 247 253 259 270 282 293 307 319 327 335 339 342 348 349 346 342 338 336 335 334 331 326 324 322 320 320 320 321 320 315 314 315 309 303 300 298 300 305 311 315 317 318 314 306 304 306 309 311 314 319
248 252 255 259 260 256 252 255 243 213 205 206 203 204 204 200 201 206 209 211 211 213 216 219 220 221 225 228 229 230 226 221 220 228 238 245 252 259 268 279 289 301 313 322 329 333 335 342 346 344 340 338 336 336 336 333 329 324 322 321 320 319 319 318 314 312 312 308 302 300 297 296 299 305 308 307 306 303 300 301 306 311 313 314 317
246 248 249 255 260 258 249 247 240 226 220 215 210 208 208 208 206 207 212 213 213 214 215 218 220 223 231 235 234 231 230 227 222 225 235 243 250 258 267 276 284 295 307 317 324 328 330 335 340 341 338 337 336 336 335 334 330 325 323 322 321 320 319 318 315 312 311 306 300 297 297 294 293 297 299 298 300 302 304 307 312 315 314 314 316
244 246 247 249 257 259 252 247 243 237 233 231 231 229 222 218 213 211 213 215 217 218 219 219 221 227 236 241 238 232 231 230 227 227 233 241 250 257 266 274 281 290 303 312 319 324 326 329 335 336 335 335 334 334 334 333 332 327 324 323 322 320 319 319 317 315 313 310 303 300 302 301 299 299 299 297 298 302 306 311 315 315 313 313 315
244 245 247 250 254 258 255 250 248 245 241 238 239 238 233 225 219 217 216 218 222 225 225 224 225 229 236 242 242 235 232 232 232 231 233 240 249 256 264 272 279 286 297 307 314 320 324 326 329 331 332 332 332 332 332 332 332 328 324 323 322 321 320 319 318 317 316 314 311 309 309 308 306 306 306 303 300 302 306 311 314 313 312 313 313
245 245 245 248 251 253 252 250 249 250 245 239 239 241 239 231 224 221 220 222 225 228 229 226 226 229 232 237 241 240 238 236 235 235 235 240 247 257 264 271 277 282 290 301 309 316 322 324 326 328 329 329 329 329 329 330 330 328 324 322 321 320 320 318 317 318 316 315 315 314 312 311 311 313 313 309 305 305 308 313 315 315 314 314 313
242 244 244 243 244 246 245 244 244 246 244 239 238 240 241 238 230 224 223 223 224 227 228 227 226 227 230 234 239 244 247 243 237 236 236 241 250 260 268 272 276 279 286 296 304 313 319 322 325 327 326 326 325 326 327 327 328 328 325 323 321 319 318 316 315 316 315 315 315 315 314 314 316 317 316 314 311 310 312 316 317 316 315 313 314
239 241 242 239 237 239 240 239 238 240 240 238 238 239 240 241 238 233 229 227 226 227 229 229 228 227 229 234 237 244 251 248 237 236 241 248 259 270 277 278 278 278 283 293 300 309 316 319 324 326 325 324 322 323 324 325 326 327 327 325 322 319 316 315 315 316 316 316 316 316 317 317 317 318 317 315 314 311 311 313 314 313 312 312 315
238 239 240 239 236 235 237 238 237 238 239 237 238 240 241 241 241 238 236 236 234 232 232 234 234 231 230 234 237 241 247 246 239 240 250 260 271 281 286 285 281 278 280 289 296 304 312 315 319 323 324 323 320 319 322 323 324 326 328 328 324 319 316 315 316 317 318 319 318 318 317 317 316 317 317 316 314 311 309 309 309 309 310 312 316
235 235 236 237 237 235 237 238 237 237 239 238 239 241 242 241 241 240 239 241 241 239 237 238 240 238 235 235 238 239 241 243 243 246 253 264 275 283 287 287 283 278 277 285 291 298 308 311 314 319 320 320 319 317 318 320 322 324 326 327 324 319 316 316 317 318 320 320 319 318 317 315 315 316 317 317 316 313 309 307 307 308 311 312 316
235 232 233 237 238 237 237 238 239 238 238 238 239 240 241 241 241 240 240 240 241 240 239 240 240 241 242 241 239 237 238 240 244 248 253 262 272 279 283 284 283 277 274 281 287 292 303 309 312 315 317 318 318 316 315 316 319 322 324 325 324 320 317 317 317 318 319 320 318 317 316 315 314 315 317 318 318 315 310 307 307 310 312 313 315
Height
5897 5897 5897 5897 5897 5897 5897 5897 5896 5896 5895 5895 5896 5896 5896 5895 5895 5895 5895 5895 5894 5894 5893 5893 5892 5891 5891 5890 5890 5889 5889 5889 5889 5888 5887 5886 5886 5885 5884 5883 5882 5881 5880 5880 5880 5880 5880 5879 5879 5878 5878 5877 5877 5876 5876 5876 5875 5875 5874 5874 5874 5873 5873 5873 5872 5872 5872 5871 5871 5871 5870 5870 5870 5869 5869 5868 5868 5867 5866 5866 5865 5864 5864 5863 5862
5896 5896 5896 5896 5896 5896 5897 5897 5896 5896 5896 5895 5896 5896 5896 5896 5896 5895 5895 5895 5895 5894 5894 5893 5892 5892 5891 5891 5890 5890 5890 5889 5889 5888 5888 5887 5886 5885 5884 5883 5882 5881 5880 5880 5880 5880 5879 5879 5879 5878 5878 5877 5877 5876 5876 5876 5875 5875 5874 5873 5873 5873 5873 5873 5872 5872 5871 5871 5871 5870 5870 5870 5869 5869 5869 5868 5868 5867 5867 5866 5865 5864 5864 5863 5862
5895 5895 5896 5896 5896 5896 5897 5897 5896 5896 5896 5896 5896 5896 5896 5896 5896 5896 5896 5895 5895 5895 5894 5893 5893 5892 5891 5891 5891 5890 5890 5890 5889 5889 5888 5887 5887 5886 5885 5883 5882 5881 5880 5880 5879 5879 5879 5879 5878 5878 5877 5877 5877 5876 5876 5875 5875 5874 5873 5872 5872 5873 5873 5872 5872 5871 5871 5870 5870 5870 5870 5869 5869 5869 5868 5868 5867 5867 5866 5866 5865 5864 5863 5863 5862
5894 5894 5895 5896 5896 5896 5897 5897 5896 5896 5896 5896 5896 5896 5896 5896 5896 5896 5896 5896 5895 5895 5894 5894 5893 5892 5892 5891 5891 5891 5891 5890 5890 5889 5888 5888 5887 5886 5885 5884 5882 5881 5880 5879 5879 5879 5878 5878 5878 5877 5877 5876 5876 5875 5875 5874 5874 5873 5872 5872 5872 5872 5872 5871 5871 5871 5870 5870 5870 5870 5869 5869 5869 5868 5868 5868 5867 5866 5866 5865 5865 5864 5863 5862 5862
5893 5893 5894 5895 5896 5896 5896 5897 5896 5896 5896 5896 5896 5896 5896 5896 5896 5896 5896 5896 5895 5895 5894 5894 5893 5892 5892 5891 5891 5891 5891 5891 5890 5889 5888 5888 5887 5886 5886 5884 5883 5881 5880 5879 5879 5878 5878 5878 5877 5877 5876 5876 5875 5874 5874 5873 5873 5872 5872 5872 5872 5871 5871 5871 5870 5870 5870 5870 5869 5869 5869 5869 5868 5868 5868 5867 5867 5866 5865 5865 5864 5864 5863 5862 5861
5892 5893 5893 5894 5895 5896 5896 5896 5896 5896 5896 5897 5897 5896 5896 5896 5896 5896 5896 5895 5895 5895 5894 5894 5893 5892 5892 5891 5891 5891 5891 5891 5890 5889 5888 5888 5887 5887 5886 5885 5884 5882 5881 5879 5878 5878 5878 5877 5877 5876 5876 5875 5874 5874 5873 5873 5872 5872 5872 5871 5871 5871 5871 5870 5870 5869 5869 5869 5869 5869 5868 5868 5868 5868 5867 5867 5866 5866 5865 5864 5864 5863 5862 5861 5861
5891 5892 5893 5894 5894 5895 5895 5896 5896 5896 5896 5897 5897 5896 5896 5896 5896 5896 5896 5895 5895 5895 5894 5894 5893 5892 5891 5891 5891 5891 5891 5891 5891 5890 5889 5888 5887 5887 5886 5885 5884 5883 5881 5880 5879 5878 5877 5877 5877 5876 5876 5875 5874 5873 5873 5872 5872 5871 5871 5871 5871 5871 5870 5870 5869 5869 5868 5868 5868 5868 5868 5867 5867 5867 5867 5866 5866 5865 5864 5864 5863 5862 5862 5861 5860
5891 5891 5892 5893 5894 5894 5895 5895 5895 5896 5896 5897 5896 5896 5896 5896 5896 5895 5895 5895 5895 5894 5894 5893 5893 5892 5891 5891 5891 5891 5891 5891 5890 5890 5889 5888 5888 5887 5887 5886 5885 5884 5882 5881 5879 5878 5878 5877 5876 5876 5876 5875 5874 5873 5872 5872 5871 5871 5871 5870 5870 5870 5870 5869 5869 5868 5868 5868 5868 5867 5867 5867 5866 5866 5866 5865 5865 5864 5864 5863 5863 5862 5861 5860 5859
5890 5891 5891 5892 5893 5893 5894 5894 5895 5895 5896 5896 5896 5896 5896 5896 5896 5895 5895 5894 5894 5894 5894 5893 5893 5892 5891 5890 5890 5890 5890 5890 5890 5890 5889 5889 5888 5887 5887 5887 5886 5884 5883 5881 5880 5879 5878 5877 5876 5876 5876 5875 5874 5873 5872 5871 5871 5871 5870 5869 5869 5869 5869 5869 5868 5867 5867 5867 5867 5867 5867 5866 5866 5866 5865 5865 5864 5864 5863 5862 5862 5861 5860 5859 5859
5889 5889 5890 5891 5892 5892 5893 5893 5894 5895 5895 5896 5896 5896 5896 5896 5895 5895 5895 5894 5894 5893 5893 5893 5892 5892 5891 5890 5890 5890 5889 5889 5890 5889 5889 5888 5888 5888 5887 5887 5886 5885 5884 5882 5881 5879 5878 5877 5876 5876 5876 5875 5874 5873 5872 5872 5871 5870 5870 5869 5868 5868 5868 5868 5867 5867 5867 5866 5866 5866 5866 5866 5866 5865 5865 5864 5864 5863 5862 5862 5861 5860 5860 5859 5858
5887 5888 5889 5890 5891 5891 5891 5892 5893 5894 5895 5895 5895 5895 5895 5895 5895 5895 5894 5894 5893 5893 5893 5892 5892 5891 5891 5890 5890 5889 5889 5889 5889 5889 5888 5888 5888 5888 5888 5887 5886 5885 5884 5883 5881 5880 5879 5877 5877 5876 5876 5875 5874 5872 5872 5871 5871 5870 5870 5869 5868 5868 5867 5867 5866 5866 5866 5866 5866 5865 5865 5865 5865 5865 5864 5864 5863 5862 5861 5861 5860 5859 5859 5858 5857
5886 5887 5888 5889 5889 5890 5890 5891 5892 5893 5894 5894 5894 5894 5894 5894 5894 5894 5894 5894 5893 5893 5892 5892 5891 5891 5890 5890 5889 5889 5888 5888 5888 5888 5888 5888 5888 5888 5888 5887 5886 5886 5885 5884 5882 5881 5879 5878 5877 5876 5876 5875 5873 5872 5872 5871 5870 5870 5870 5869 5868 5868 5867 5866 5866 5866 5866 5866 5865 5865 5865 5865 5865 5865 5864 5863 5862 5861 5860 5860 5859 5858 5858 5857 5856
5884 5885 5886 5887 5888 5889 5889 5890 5891 5892 5892 5893 5893 5893 5893 5894 5894 5894 5894 5893 5893 5892 5892 5892 5891 5890 5890 5889 5889 5889 5888 5888 5888 5888 5887 5887 5887 5888 5888 5887 5886 5885 5885 5884 5883 5881 5880 5878 5877 5876 5876 5875 5874 5872 5872 5871 5870 5869 5869 5868 5868 5868 5867 5866 5866 5865 5865 5865 5865 5865 5865 5864 5864 5864 5863 5862 5861 5860 5859 5859 5858 5858 5857 5856 5855
5881 5882 5884 5885 5886 5887 5888 5889 5889 5890 5891 5892 5892 5892 5892 5893 5893 5893 5893 5893 5892 5892 5891 5891 5891 5890 5889 5889 5889 5888 5888 5887 5887 5887 5887 5887 5887 5888 5888 5887 5886 5885 5884 5884 5883 5882 5880 5879 5877 5877 5876 5875 5874 5873 5872 5871 5870 5869 5868 5868 5867 5867 5866 5866 5865 5865 5865 5864 5865 5865 5864 5864 5863 5863 5862 5861 5860 5859 5859 5858 5858 5857 5856 5855 5854
5879 5880 5882 5883 5884 5886 5886 5887 5888 5889 5890 5890 5891 5891 5891 5892 5892 5892 5892 5892 5891 5891 5891 5890 5890 5889 5889 5888 5888 5888 5887 5887 5887 5887 5887 5887 5887 5887 5887 5887 5886 5885 5884 5883 5883 5882 5881 5879 5878 5877 5876 5875 5874 5873 5872 5871 5870 5869 5868 5867 5867 5866 5865 5865 5864 5864 5864 5864 5864 5863 5863 5863 5863 5862 5861 5860 5859 5859 5858 5857 5857 5856 5855 5854 5853
5876 5878 5879 5881 5882 5884 5885 5886 5886 5887 5888 5889 5890 5890 5890 5891 5891 5891 5891 5891 5891 5890 5890 5890 5889 5889 5888 5888 5887 5887 5887 5887 5887 5886 5886 5886 5887 5887 5887 5887 5886 5885 5884 5883 5883 5882 5881 5880 5878 5877 5875 5874 5873 5873 5872 5871 5870 5869 5868 5867 5866 5866 5865 5864 5863 5863 5863 5863 5862 5862 5862 5862 5862 5861 5860 5859 5858 5858 5857 5856 5856 5855 5854 5853 5852
5874 5875 5877 5879 5880 5882 5883 5884 5885 5886 5887 5888 5888 5889 5889 5889 5890 5891 5891 5890 5890 5890 5890 5889 5889 5888 5888 5887 5887 5886 5886 5886 5886 5886 5885 5885 5886 5887 5887 5886 5886 5885 5884 5883 5882 5882 5881 5880 5878 5877 5875 5874 5873 5873 5872 5871 5870 5869 5868 5867 5866 5865 5865 5864 5863 5863 5862 5862 5862 5861 5861 5861 5860 5859 5858 5858 5857 5857 5856 5855 5854 5854 5853 5852 5850
5871 5873 5875 5877 5878 5880 5881 5882 5883 5884 5885 5886 5887 5887 5888 5888 5889 5889 5890 5890 5889 5889 5889 5889 5888 5888 5887 5887 5886 5886 5886 5885 5885 5885 5885 5885 5885 5886 5886 5886 5885 5885 5884 5883 5882 5881 5881 5880 5879 5877 5875 5874 5873 5872 5872 5871 5870 5869 5868 5867 5866 5865 5864 5864 5863 5863 5862 5862 5861 5861 5860 5859 5859 5858 5857 5857 5856 5856 5855 5854 5854 5853 5852 5851 5849
5868 5870 5873 5875 5877 5878 5880 5881 5881 5882 5883 5885 5886 5886 5886 5887 5888 5888 5888 5889 5889 5888 5888 5888 5887 5887 5887 5886 5886 5886 5885 5885 5884 5884 5884 5884 5885 5885 5885 5885 5885 5884 5883 5883 5882 5881 5880 5879 5878 5877 5875 5874 5872 5872 5871 5871 5870 5869 5868 5867 5866 5865 5864 5863 5863 5862 5862 5861 5861 5860 5859 5858 5858 5857 5856 5856 5855 5855 5854 5854 5853 5852 5851 5850 5848
5865 5868 5871 5873 5875 5876 5878 5879 5880 5880 5881 5883 5884 5884 5885 5886 5887 5887 5887 5887 5887 5887 5887 5887 5887 5886 5886 5886 5885 5885 5885 5884 5884 5883 5883 5884 5884 5884 5884 5884 5884 5884 5883 5882 5881 5881 5880 5879 5878 5877 5875 5874 5872 5871 5871 5870 5870 5869 5868 5867 5866 5865 5864 5863 5862 5862 5861 5860 5860 5859 5858 5858 5857 5856 5855 5855 5854 5854 5853 5853 5852 5851 5850 5849 5847
5864 5867 5869 5871 5873 5874 5876 5877 5878 5879 5880 5881 5882 5883 5883 5884 5885 5886 5886 5886 5886 5886 5886 5885 5885 5885 5885 5885 5885 5884 5884 5883 5883 5883 5883 5883 5883 5883 5883 5883 5883 5883 5882 5882 5881 5880 5879 5878 5878 5876 5875 5873 5872 5871 5870 5870 5869 5869 5868 5867 5866 5865 5864 5863 5862 5861 5861 5860 5859 5858 5857 5857 5856 5855 5855 5854 5854 5853 5852 5852 5851 5850 5849 5848 5846
5863 5866 5868 5869 5871 5872 5874 5875 5876 5877 5878 5879 5880 5881 5882 5882 5883 5884 5884 5885 5885 5885 5884 5884 5884 5884 5884 5884 5884 5883 5883 5883 5882 5882 5882 5882 5882 5882 5882 5883 5882 5882 5882 5881 5880 5879 5879 5878 5877 5876 5874 5873 5872 5871 5870 5869 5869 5869 5868 5866 5865 5864 5863 5863 5862 5861 5860 5859 5858 5857 5857 5856 5855 5855 5854 5854 5853 5852 5852 5851 5850 5849 5847 5846 5845
5862 5865 5866 5868 5869 5870 5872 5873 5874 5876 5877 5878 5879 5879 5880 5881 5881 5882 5883 5883 5883 5883 5883 5883 5883 5883 5883 5883 5883 5883 5882 5882 5882 5882 5882 5881 5881 5881 5882 5882 5882 5882 5881 5880 5880 5879 5878 5877 5876 5875 5874 5872 5871 5870 5870 5869 5869 5868 5867 5866 5865 5864 5863 5862 5861 5860 5859 5859 5858 5857 5856 5855 5855 5854 5854 5853 5853 5852 5851 5850 5849 5848 5846 5845 5844
5860 5863 5865 5866 5868 5869 5870 5872 5873 5874 5875 5876 5877 5877 5878 5879 5880 5881 5881 5881 5882 5882 5883 5882 5882 5882 5882 5883 5882 5882 5882 5882 5882 5881 5881 5881 5881 5881 5881 5881 5881 5881 5880 5880 5879 5878 5877 5876 5875 5874 5873 5872 5871 5870 5869 5869 5868 5867 5866 5866 5864 5863 5862 5861 5860 5859 5859 5858 5857 5856 5855 5855 5854 5853 5853 5852 5852 5851 5850 5849 5848 5847 5845 5844 5843
5858 5860 5863 5865 5867 5868 5869 5870 5871 5872 5872 5873 5874 5875 5877 5878 5879 5879 5880 5880 5881 5881 5882 5882 5882 5882 5882 5882 5882 5882 5881 5881 5881 5881 5881 5880 5880 5880 5880 5880 5880 5880 5880 5879 5878 5878 5876 5875 5874 5873 5872 5871 5870 5870 5869 5868 5867 5866 5866 5865 5864 5862 5862 5861 5860 5859 5858 5857 5856 5855 5855 5854 5853 5853 5852 5851 5850 5849 5848 5848 5847 5846 5844 5844 5843
5855 5858 5860 5862 5864 5866 5867 5868 5869 5870 5870 5871 5872 5874 5875 5876 5877 5878 5878 5879 5879 5880 5881 5881 5881 5881 5881 5881 5881 5881 5881 5881 5880 5880 5880 5880 5880 5880 5880 5879 5879 5879 5879 5878 5878 5877 5876 5875 5873 5872 5871 5871 5870 5869 5868 5867 5867 5866 5865 5864 5863 5862 5861 5860 5859 5858 5857 5856 5855 5855 5854 5853 5852 5852 5851 5850 5849 5848 5847 5847 5845 5844 5844 5843 5842
5853 5854 5857 5859 5861 5863 5864 5866 5867 5868 5868 5869 5870 5871 5873 5874 5875 5876 5877 5877 5878 5879 5879 5880 5880 5881 5881 5881 5881 5881 5880 5880 5880 5880 5879 5879 5879 5879 5879 5879 5879 5879 5878 5878 5877 5877 5875 5874 5872 5871 5870 5870 5869 5868 5868 5867 5866 5865 5864 5863 5861 5861 5860 5860 5858 5857 5856 5855 5854 5853 5853 5852 5851 5850 5849 5849 5848 5847 5846 5845 5844 5844 5843 5842 5841
5850 5851 5854 5856 5858 5860 5861 5863 5865 5865 5866 5867 5868 5868 5870 5872 5873 5874 5875 5876 5877 5877 5878 5879 5879 5879 5880 5880 5880 5880 5880 5880 5880 5879 5878 5878 5878 5878 5879 5878 5878 5878 5878 5877 5877 5876 5875 5873 5872 5871 5870 5869 5868 5868 5867 5866 5865 5864 5863 5862 5861 5860 5859 5858 5857 5856 5855 5854 5853 5852 5851 5850 5850 5849 5848 5848 5847 5846 5845 5844 5843 5843 5842 5841 5839
5848 5849 5851 5853 5855 5856 5858 5860 5862 5864 5865 5865 5866 5866 5867 5869 5870 5872 5873 5874 5875 5876 5877 5877 5878 5878 5878 5878 5879 5879 5879 5879 5879 5879 5878 5877 5877 5878 5878 5878 5877 5877 5877 5877 5876 5876 5874 5873 5872 5871 5870 5869 5868 5867 5866 5865 5864 5864 5863 5861 5860 5859 5858 5857 5856 5855 5854 5853 5852 5851 5850 5849 5848 5848 5847 5847 5846 5845 5844 5843 5843 5842 5841 5840 5838
5846 5846 5847 5849 5851 5852 5854 5857 5859 5861 5863 5864 5864 5864 5865 5866 5867 5869 5871 5872 5874 5875 5875 5876 5876 5877 5877 5877 5878 5878 5878 5878 5878 5878 5877 5877 5877 5877 5877 5877 5876 5876 5876 5876 5876 5875 5874 5872 5871 5870 5869 5868 5867 5866 5866 5865 5864 5863 5861 5860 5859 5858 5858 5857 5855 5854 5852 5852 5851 5850 5849 5848 5847 5847 5846 5845 5844 5843 5843 5842 5842 5841 5840 5838 5837
5843 5843 5844 5845 5847 5848 5850 5853 5856 5858 5860 5862 5863 5863 5863 5863 5864 5866 5868 5870 5872 5873 5874 5875 5875 5875 5876 5876 5876 5877 5877 5877 5877 5877 5877 5877 5876 5876 5876 5876 5876 5875 5875 5876 5875 5874 5873 5872 5871 5870 5869 5868 5867 5866 5865 5864 5863 5861 5860 5859 5859 5857 5857 5856 5854 5852 5851 5850 5850 5849 5848 5847 5846 5845 5845 5844 5843 5843 5842 5841 5840 5839 5838 5837 5836
5840 5841 5841 5843 5844 5844 5846 5851 5854 5856 5857 5859 5860 5861 5861 5861 5862 5864 5866 5868 5869 5871 5872 5873 5873 5874 5874 5874 5875 5875 5876 5876 5876 5876 5876 5876 5876 5875 5876 5875 5875 5874 5874 5874 5874 5873 5872 5871 5870 5869 5868 5868 5867 5866 5864 5863 5862 5861 5860 5859 5858 5857 5855 5854 5853 5851 5850 5849 5848 5848 5847 5846 5845 5844 5844 5843 5842 5841 5841 5840 5839 5838 5837 5836 5834
5836 5837 5839 5841 5842 5841 5844 5849 5852 5854 5855 5856 5857 5859 5860 5860 5860 5862 5863 5865 5867 5869 5870 5871 5871 5872 5873 5873 5873 5874 5875 5875 5875 5876 5876 5875 5875 5875 5875 5875 5874 5874 5873 5873 5873 5872 5871 5870 5869 5868 5868 5867 5866 5864 5863 5861 5861 5860 5860 5859 5857 5856 5854 5852 5851 5850 5848 5847 5847 5846 5845 5845 5844 5843 5842 5841 5841 5840 5839 5839 5838 5836 5835 5834 5833
5833 5834 5836 5839 5839 5840 5843 5847 5849 5851 5852 5853 5855 5857 5858 5858 5858 5860 5862 5864 5865 5867 5868 5869 5869 5870 5871 5871 5872 5872 5873 5874 5874 5875 5874 5874 5874 5874 5874 5874 5873 5873 5872 5872 5872 5871 5870 5869 5868 5868 5867 5866 5864 5863 5862 5861 5860 5859 5859 5858 5856 5855 5853 5851 5849 5848 5848 5846 5845 5845 5844 5843 5842 5842 5841 5840 5839 5839 5838 5837 5836 5835 5834 5833 5831
5830 5831 5834 5836 5838 5839 5841 5843 5846 5849 5851 5852 5853 5855 5856 5857 5857 5858 5860 5862 5863 5865 5866 5867 5867 5868 5869 5870 5870 5871 5872 5872 5873 5873 5873 5873 5873 5874 5874 5873 5872 5871 5871 5871 5870 5870 5869 5868 5867 5866 5865 5864 5863 5862 5861 5860 5859 5858 5857 5856 5855 5853 5851 5849 5848 5847 5847 5845 5844 5843 5843 5842 5841 5841 5840 5839 5838 5838 5837 5836 5835 5834 5832 5831 5830
5827 5828 5831 5834 5836 5837 5838 5840 5843 5846 5849 5851 5852 5853 5854 5855 5856 5857 5858 5860 5861 5863 5864 5865 5866 5867 5867 5868 5869 5870 5870 5871 5871 5872 5872 5872 5872 5873 5873 5872 5871 5870 5869 5869 5869 5868 5868 5867 5866 5866 5865 5864 5863 5862 5861 5860 5858 5857 5856 5855 5853 5852 5850 5849 5847 5846 5845 5844 5843 5842 5842 5841 5840 5839 5839 5838 5837 5836 5836 5835 5833 5832 5831 5830 5829
5825 5826 5828 5830 5833 5835 5837 5839 5841 5843 5846 5848 5850 5851 5852 5853 5854 5855 5857 5859 5860 5861 5862 5863 5864 5865 5866 5866 5867 5868 5869 5869 5870 5870 5871 5871 5871 5871 5871 5871 5870 5869 5868 5868 5868 5868 5867 5866 5865 5864 5864 5862 5861 5860 5859 5858 5857 5855 5854 5853 5852 5851 5850 5848 5846 5845 5844 5843 5841 5840 5840 5840 5839 5839 5838 5836 5836 5835 5834 5833 5832 5831 5830 5829 5828
5822 5824 5826 5828 5831 5833 5834 5837 5839 5840 5843 5846 5848 5849 5850 5850 5852 5853 5855 5857 5859 5860 5860 5862 5863 5863 5864 5865 5866 5866 5867 5868 5868 5869 5869 5870 5870 5870 5871 5870 5869 5868 5868 5868 5867 5867 5866 5865 5864 5863 5862 5861 5859 5858 5857 5856 5855 5854 5853 5851 5850 5850 5849 5848 5846 5844 5842 5841 5840 5839 5838 5838 5838 5838 5837 5836 5834 5833 5832 5831 5830 5830 5829 5828 5827
5820 5820 5822 5825 5828 5831 5832 5834 5835 5837 5841 5843 5846 5847 5847 5848 5850 5852 5854 5856 5857 5859 5860 5860 5861 5862 5862 5863 5864 5865 5866 5866 5867 5867 5868 5868 5869 5869 5869 5869 5868 5867 5866 5866 5866 5865 5864 5863 5862 5861 5860 5859 5858 5856 5855 5854 5853 5852 5851 5850 5849 5848 5848 5847 5845 5844 5842 5840 5839 5838 5837 5836 5835 5835 5835 5834 5833 5831 5830 5830 5830 5829 5828 5826 5825
5817 5817 5818 5820 5824 5828 5830 5831 5831 5833 5837 5841 5843 5845 5845 5846 5848 5851 5853 5854 5856 5857 5858 5859 5859 5860 5861 5861 5863 5863 5864 5865 5865 5866 5866 5866 5867 5867 5867 5867 5866 5865 5864 5864 5864 5863 5862 5861 5860 5859 5858 5857 5856 5855 5854 5852 5851 5850 5849 5848 5847 5847 5846 5845 5844 5843 5842 5840 5839 5838 5836 5835 5833 5832 5832 5832 5831 5830 5829 5829 5829 5828 5826 5825 5823
5814 5814 5815 5815 5818 5824 5827 5828 5829 5830 5833 5838 5841 5842 5843 5844 5847 5849 5851 5852 5854 5855 5857 5857 5858 5858 5859 5860 5861 5862 5863 5863 5864 5864 5864 5864 5865 5865 5865 5865 5864 5864 5863 5862 5862 5861 5860 5859 5858 5857 5856 5855 5854 5853 5852 5851 5850 5849 5848 5847 5846 5845 5845 5844 5842 5842 5841 5839 5838 5837 5836 5834 5833 5831 5830 5829 5829 5829 5829 5828 5828 5826 5825 5823 5821
5811 5812 5814 5813 5813 5819 5824 5826 5828 5829 5832 5836 5838 5839 5841 5842 5844 5846 5847 5849 5851 5853 5854 5855 5856 5856 5857 5858 5859 5860 5861 5862 5862 5863 5863 5863 5863 5863 5863 5863 5863 5862 5861 5861 5860 5860 5859 5858 5857 5856 5855 5854 5853 5851 5850 5849 5848 5847 5846 5845 5844 5844 5843 5842 5841 5840 5839 5838 5837 5836 5835 5834 5833 5831 5829 5828 5828 5828 5828 5827 5826 5825 5823 5821 5819
5808 5810 5812 5812 5811 5815 5820 5823 5826 5829 5831 5833 5835 5837 5839 5840 5842 5843 5844 5846 5848 5850 5851 5852 5854 5855 5856 5857 5858 5858 5859 5859 5860 5861 5861 5861 5861 5861 5861 5861 5861 5861 5860 5859 5859 5858 5857 5857 5856 5854 5853 5852 5851 5850 5849 5848 5847 5846 5845 5844 5843 5843 5842 5841 5840 5838 5838 5837 5836 5835 5834 5833 5832 5831 5830 5828 5827 5826 5826 5825 5823 5822 5821 5819 5818
5804 5806 5809 5810 5809 5811 5815 5819 5822 5825 5827 5830 5831 5833 5836 5837 5839 5841 5842 5843 5845 5846 5848 5851 5853 5854 5855 5855 5856 5857 5857 5857 5858 5859 5859 5859 5859 5859 5859 5859 5859 5859 5859 5858 5857 5857 5856 5855 5854 5853 5852 5851 5850 5849 5848 5847 5846 5845 5844 5843 5842 5841 5840 5840 5839 5837 5836 5836 5835 5834 5832 5831 5830 5830 5829 5827 5825 5824 5823 5822 5821 5820 5819 5818 5816
5800 5803 5806 5807 5808 5809 5812 5814 5817 5820 5823 5826 5828 5829 5831 5834 5837 5838 5839 5841 5842 5844 5847 5850 5852 5853 5853 5853 5854 5855 5855 5855 5856 5857 5857 5858 5858 5858 5858 5857 5858 5858 5857 5856 5856 5855 5855 5854 5853 5851 5850 5849 5848 5847 5846 5845 5844 5843 5842 5841 5840 5839 5839 5838 5837 5836 5835 5834 5833 5832 5831 5829 5828 5827 5827 5825 5824 5823 5821 5821 5820 5819 5818 5817 5815
5796 5799 5802 5804 5805 5807 5809 5811 5813 5815 5818 5821 5823 5824 5827 5830 5833 5835 5837 5839 5841 5843 5846 5848 5849 5850 5851 5851 5851 5853 5854 5854 5854 5855 5856 5856 5856 5856 5856 5856 5856 5856 5856 5855 5855 5854 5853 5852 5851 5850 5849 5847 5846 5846 5845 5844 5843 5842 5841 5840 5839 5838 5837 5836 5835 5835 5834 5832 5831 5830 5829 5828 5827 5825 5824 5823 5822 5821 5820 5819 5818 5817 5816 5815 5813
5792 5795 5797 5800 5802 5804 5806 5807 5810 5812 5814 5816 5818 5820 5822 5826 5828 5831 5834 5836 5837 5839 5842 5843 5844 5846 5848 5849 5849 5850 5852 5853 5853 5853 5854 5855 5855 5855 5854 5854 5854 5854 5854 5854 5853 5852 5851 5850 5849 5848 5847 5846 5845 5844 5843 5842 5841 5840 5839 5838 5837 5836 5835 5835 5834 5833 5832 5831 5830 5828 5827 5826 5825 5824 5822 5821 5820 5818 5817 5816 5816 5815 5814 5813 5811
5787 5789 5791 5795 5797 5799 5801 5803 5805 5808 5811 5813 5814 5816 5818 5821 5824 5827 5829 5832 5834 5836 5838 5839 5840 5842 5845 5847 5848 5848 5849 5851 5851 5851 5852 5853 5853 5853 5853 5853 5852 5852 5853 5852 5852 5851 5850 5848 5847 5846 5845 5845 5844 5843 5842 5841 5840 5839 5838 5836 5835 5834 5834 5833 5832 5831 5830 5829 5828 5826 5825 5824 5823 5823 5821 5820 5818 5817 5815 5814 5814 5813 5812 5810 5809
5780 5784 5787 5790 5792 5795 5797 5798 5801 5803 5806 5808 5809 5812 5814 5817 5820 5822 5825 5828 5831 5832 5834 5836 5837 5839 5842 5844 5845 5846 5847 5848 5849 5850 5850 5850 5851 5851 5851 5851 5850 5850 5851 5851 5850 5849 5848 5847 5846 5845 5844 5843 5843 5842 5841 5840 5838 5837 5836 5835 5834 5833 5832 5831 5831 5830 5828 5827 5826 5824 5823 5822 5821 5821 5820 5819 5817 5816 5814 5813 5813 5812 5810 5808 5806
5774 5778 5781 5784 5786 5790 5792 5794 5797 5799 5801 5804 5806 5808 5810 5812 5815 5817 5821 5824 5826 5828 5831 5833 5834 5836 5838 5840 5842 5843 5845 5845 5846 5847 5848 5848 5849 5849 5849 5849 5848 5848 5848 5849 5848 5848 5847 5845 5845 5844 5842 5841 5841 5840 5839 5838 5837 5836 5834 5833 5832 5831 5831 5830 5829 5828 5827 5825 5824 5823 5822 5821 5820 5819 5819 5818 5816 5814 5813 5811 5811 5811 5809 5806 5804
5769 5772 5775 5778 5781 5784 5787 5789 5792 5795 5797 5799 5802 5804 5806 5808 5810 5813 5817 5820 5822 5824 5827 5829 5831 5833 5835 5837 5838 5840 5842 5843 5843 5844 5845 5846 5846 5847 5847 5847 5846 5846 5846 5846 5846 5846 5845 5844 5843 5842 5841 5840 5839 5838 5838 5837 5836 5834 5833 5832 5831 5830 5829 5828 5827 5826 5825 5824 5823 5822 5821 5819 5818 5817 5817 5816 5815 5813 5811 5810 5809 5808 5806 5804 5802